Skip Page Navigation
NASA JPL Caltech
NASA Logo - Jet Propulsion Laboratory + View the NASA Portal
+ Center for Near-Earth Object Studies
JPL Home Earth Solar System Stars & Galaxies Technology
JPL Solar System Dynamics
BODIES ORBITS EPHEMERIDES TOOLS PHYSICAL DATA DISCOVERY FAQ SITE MAP
JPL Small-Body Database Browser
Search: [ help ]  
1685 Toro (1948 OA)
Classification: Apollo [NEO]          SPK-ID: 2001685
Ephemeris | Orbit Diagram | Orbital Elements | Mission Design | Physical Parameters | Discovery Circumstances | Close-Approach Data ]

[ hide orbit diagram ]

For accurate long-term ephemerides, please instead use our Horizons system.This orbit viewer was implemented using two-body methods, and hence should not be used for determining accurate long-term trajectories (over several years or decades) or planetary encounter circumstances.


Orbital Elements at Epoch 2459200.5 (2020-Dec-17.0) TDB
Reference: JPL 584 (heliocentric ecliptic J2000)
 Element Value Uncertainty (1-sigma)   Units 
e .4358525289692032 3.809e-09  
a 1.367568239907066 6.8758e-10 au
q .7715101640056092 4.9696e-09 au
i 9.382596927413244 4.3429e-07 deg
node 274.2414515697443 1.6513e-06 deg
peri 127.2215292629275 2.0066e-06 deg
M 53.50195642367324 1.2337e-06 deg
tp 2459113.686133569427
(2020-Sep-21.18613357)
1.9486e-06 TDB
period 584.146711711231
1.60
4.4054e-07
1.206e-09
d
yr
n .6162835342261818 4.6478e-10 deg/d
Q 1.963626315808523 9.8726e-10 au

Additional Model Parameters
 Parameter Value Uncertainty (1-sigma) 
A2 [EST] -3.330196914738929E-15 6.435E-16
ALN [SET] 1. n/a
NK [SET] 0. n/a
NM [SET] 2. n/a
R0 [SET] 1. n/a
  Orbit Determination Parameters
   # obs. used (total)      3483  
   # delay obs. used      7  
   # Doppler obs. used      2  
   data-arc span      26594 days (72.81 yr)  
   first obs. used      1948-07-17  
   last obs. used      2021-05-09  
   planetary ephem.      DE441  
   SB-pert. ephem.      SB441-N16  
   condition code      0  
   norm. resid. RMS      .32268  
   source      ORB  
   producer      Otto Matic  
   solution date      2021-May-09 06:08:52  

Additional Information
 Earth MOID = .0507761 au 
 Jupiter MOID = 3.4803 au 
 T_jup = 4.715 
 Nongravitational accels. using nonstandard g(r) = (1 au/ r)^2 
[ hide covariance matrix ]
Orbital Elements at Epoch 2456376.5 (2013-Mar-25.0) TDB
Reference: JPL 584 (heliocentric ecliptic J2000)
 Element Value Uncertainty (1-sigma)   Units 
e .4359810818792356 3.8106e-09  
q .7711051655487341 5.025e-09 au
tp 2456193.444781535862
(2012-Sep-22.94478154)
1.1864e-06 TDB
node 274.3076415371382 1.6525e-06 deg
peri 127.1163004024011 2.0078e-06 deg
i 9.381219141365486 4.3425e-07 deg

Additional Model Parameters
 Parameter Value Uncertainty (1-sigma) 
A2 [EST] -3.330196914738929E-15 6.435E-16
ALN [SET] 1. n/a
NK [SET] 0. n/a
NM [SET] 2. n/a
R0 [SET] 1. n/a
  Orbit Determination Parameters
   # obs. used (total)      3483  
   # delay obs. used      7  
   # Doppler obs. used      2  
   data-arc span      26594 days (72.81 yr)  
   first obs. used      1948-07-17  
   last obs. used      2021-05-09  
   planetary ephem.      DE441  
   SB-pert. ephem.      SB441-N16  
   condition code      0  
   norm. resid. RMS      .32268  
   source      ORB  
   producer      Otto Matic  
   solution date      2021-May-09 06:08:52  

Additional Information
 Jupiter MOID = 3.4803 au 
 T_jup = 4.715 
 Nongravitational accels. using nonstandard g(r) = (1 au/ r)^2 
Orbit Covariance (7×7)
  e q tp node peri i A2
e 1.452065168400284E-17 -1.91305426935899E-17 1.481785397386352E-15 -5.699464325608004E-16 2.565301408346913E-15 7.753519691146893E-16 1.46321608451958E-24
q -1.91305426935899E-17 2.525027892885004E-17 -2.120725766401183E-15 8.734688493591656E-16 -3.587101746281631E-15 -1.050546587403044E-15 -1.829351588858881E-24
tp 1.481785397386352E-15 -2.120725766401183E-15 1.407520519603054E-12 -2.182923019364192E-13 1.309346968220916E-12 1.350305914402089E-13 -1.4756743308303E-22
node -5.699464325608004E-16 8.734688493591656E-16 -2.182923019364192E-13 2.730774044199638E-12 -2.876127624625726E-12 -4.077938484804107E-13 1.520635829716741E-22
peri 2.565301408346913E-15 -3.587101746281631E-15 1.309346968220916E-12 -2.876127624625726E-12 4.031433188906626E-12 5.416305551561878E-13 -6.09252887082232E-23
i 7.753519691146893E-16 -1.050546587403044E-15 1.350305914402089E-13 -4.077938484804107E-13 5.416305551561878E-13 1.885694088588121E-13 2.812415314052283E-23
A2 1.46321608451958E-24 -1.829351588858881E-24 -1.4756743308303E-22 1.520635829716741E-22 -6.09252887082232E-23 2.812415314052283E-23 4.140297751073621E-31

Ephemeris | Orbit Diagram | Orbital Elements | Mission Design | Physical Parameters | Discovery Circumstances | Close-Approach Data ]

Physical Parameter Table
Parameter Symbol Value Units Sigma Reference Notes
absolute magnitude H 14.33   n/a E2021B10  
diameter diameter 3.4 km n/a Hazards due to Comets and Asteroids (1994), Ed. T. Gehrels, pp.540-543  
rotation period rot_per 10.1995 h n/a LCDB (Rev. 2020-October); Warner et al., 2009 Published Reference List:
[Dunlap, J.L.; Gehrels, T.; Howes, M.L. (1973) Astron. J. 78, 491-501.]
[De Angelis, G. (1995) Planet. Space Sci. 43, 649-682.]
[Torppa, J.; Aksnes, K.; Dai, Z.; Grav, T.; et al. (2005) Bull. Amer. Astron. Soc. 37, 643.]
[Higgins, D. (2008) Minor Planet Bull. 35, 30-32.]
[Higgins, D.; Pravec, P.; Kusnirak, P.; Hornoch, K.; Brinsfield, J.W.; Allen, B.; Warner, B.D. (2008) Minor Planet Bull. 35, 123-126.]
[Higgins, D. (2011) Minor Planet Bull. 38, 41-46.]
[Oey, J. (2011) Minor Planet Bull. 38, 221-223.]
[Warner, B.D. (2013). Minor Planet Bull. 40, 26-29.]
[Warner, B.D. (2016) Minor Planet Bull. 43, 240-250.]
[Oey, J.; Williams, H.; Groom, R. (2017) Minor Planet Bull. 44, 200-204.]
[Durech, J.; Vokrouhlicky, D.; Pravec, P.; Hanus, J.; et al. (2018) Astron. Astrophys. 609, A86.]
[Warner, B.D.; Stephens, R.D. (2020) Minor Planet Bull. 47, 290-304.]
geometric albedo albedo 0.31   n/a Hazards due to Comets and Asteroids (1994), Ed. T. Gehrels, pp.540-543  
B-V BV 0.880   0.027 EAR-A-5-DDR-UBV-MEAN-VALUES-V1.2 #obs=5; phase (min.=39.08, mean=63.48, max.=99.00) deg.
U-B UB 0.470   0.022 EAR-A-5-DDR-UBV-MEAN-VALUES-V1.2 #obs=4; phase (min.=41.43, mean=59.67, max.=75.99) deg.
Tholen spectral type spec_T S   n/a EAR-A-5-DDR-TAXONOMY-V4.0 used 2 color indices
SMASSII spectral type spec_B S   n/a EAR-A-5-DDR-TAXONOMY-V4.0 based on a high-resolution spectrum by Xu et al. (1995) or Bus and Binzel (2002)

1685 Toro (1948 OA)          Discovered 1948-Jul-17 by Wirtanen, C. A. at Mount Hamilton
Reference: DISCOVERY.DBLast Updated: 2003-08-29

[ hide close-approach data ]
Close-Approach Data   ...sorted by Date/Time (TDB)
Date/Time (TDB) Time Uncertainty
(days_HH:MM)
Body Nominal Distance (au) Minimum Distance (au) Maximum Distance (au) V-relative (km/s) V-infinity (km/s) JD (TDB) Time Uncertainty (minutes) Semi-major axis (km) Semi-minor axis (km) range-LOV angle (deg) N-sigma BP Orbit Ref. Reference Modified
1900-Aug-02 11:05 < 00:01 Earth 0.20026591964652 0.200263809702685 0.20026802960306 17.00911936191 17.0083371337162 2415233.962002009 0.187252929040075 131.900336945133 1.22513763918013 -37.0953659897487 13416485.8592137 T 584 CATAB v2.0g-lin.ifort 2021-May-09 06:09:37 2021-May-09 06:09
1904-Jan-29 05:51 < 00:01 Earth 0.2979157857936 0.297913122516765 0.297918449071484 21.1757695023627 21.1753471412057 2416508.743718179 0.206655163325356 135.717703980235 0.957303134966891 11.8928136193429 8762995.09081151 T 584 CATAB v2.0g-lin.ifort 2021-May-09 06:09:37 2021-May-09 06:09
1908-Aug-04 01:10 < 00:01 Earth 0.177033189544717 0.177031156146367 0.177035222963194 16.1351217070211 16.1341888867582 2418157.548335427 0.199151664088238 138.358880237009 1.2199479219234 -42.8783133202119 13482550.6297179 T 584 CATAB v2.0g-lin.ifort 2021-May-09 06:09:37 2021-May-09 06:09
1912-Jan-31 01:55 < 00:01 Earth 0.330450514349417 0.330447872858079 0.330453155841581 22.1491072205808 22.1487431770916 2419432.579810235 0.202097932734784 134.299859875896 0.945415105093034 11.2519047129792 9330677.45919777 T 584 CATAB v2.0g-lin.ifort 2021-May-09 06:09:37 2021-May-09 06:09
1916-Aug-05 18:54 < 00:01 Earth 0.154401475770207 0.15439987146927 0.154403080096992 15.1884895570401 15.1873533366791 2421081.287725528 0.187986108823398 127.771961844286 1.21401457290177 -51.2419296693329 13628339.8830288 T 584 CATAB v2.0g-lin.ifort 2021-May-09 06:09:37 2021-May-09 06:09
1920-Feb-01 16:58 < 00:01 Earth 0.361595356843607 0.361593026900786 0.361597686786963 23.0673849534214 23.0670655098479 2422356.207081321 0.176739725764477 118.239169973453 0.932516746360514 10.7003082930864 9866432.42157796 T 584 CATAB v2.0g-lin.ifort 2021-May-09 06:09:37 2021-May-09 06:09
1924-Aug-07 09:59 < 00:01 Earth 0.138349091221657 0.138348047332067 0.138350135136217 14.3510014495864 14.3496593827482 2424004.915973023 0.160946485452928 106.324619664996 1.20832200012074 -60.6965164907477 13832737.1995943 T 584 CATAB v2.0g-lin.ifort 2021-May-09 06:09:37 2021-May-09 06:09
1928-Feb-03 02:53 < 00:01 Earth 0.387207899859081 0.387206032451032 0.387209767267438 23.8390668930641 23.8387782364423 2425279.619849896 0.141317726174136 94.6705811502651 0.923449945694455 10.3880338755212 10381715.4946289 T 584 CATAB v2.0g-lin.ifort 2021-May-09 06:09:37 2021-May-09 06:09
1932-Aug-08 15:40 < 00:01 Earth 0.129129832778321 0.129129254500009 0.129130411074528 13.7183296016194 13.7168253920549 2426928.152614760 0.126072126079674 81.1613724753441 1.20341179940712 -69.208199020221 14017213.9813175 T 584 CATAB v2.0g-lin.ifort 2021-May-09 06:09:37 2021-May-09 06:09
1936-Feb-04 06:30 < 00:01 Earth 0.40758793990513 0.407586553099503 0.40758932671092 24.4494592801496 24.4491919030871 2428202.771067589 0.105170140315929 70.2623580871391 0.916948064766819 10.1929047043519 10826628.2331444 T 584 CATAB v2.0g-lin.ifort 2021-May-09 06:09:37 2021-May-09 06:09
